Regional Weather Roundup
Issued by NWS Sioux Falls, SD

Home | Current Version | Previous Version | Text Only | Print | Product List | Glossary Off
Versions: 1 2 3 4 5 6 7 8 9 10 11 12 13 14 15 16 17 18 19 20 21 22 23 24 25 26 27 28 29 30 31 32 33 34 35 36 37 38 39 40 41 42 43 44 45 46 47 48 49 50

000
ASUS43 KFSD 312210
RWRFSD

WEATHER ROUNDUP FOR SE SOUTH DAKOTA/SW MINNESOTA/NW IOWA
NATIONAL WEATHER SERVICE SIOUX FALLS SD
500 PM CDT TUE MAY 31 2016

NOTE: "FAIR" INDICATES FEW OR NO CLOUDS BELOW 12,000 FEET WITH NO
SIGNIFICANT WEATHER AND OR OBSTRUCTIONS TO VISIBILITY.


SDZ038>040-050-052>070-312300-
SOUTHEAST SOUTH DAKOTA

CITY           SKY/WX    TMP DP  RH WIND       PRES   REMARKS
BROOKINGS      MOSUNNY   69  49  48 SW18      29.84F
CHAMBERLAIN    SUNNY     74  47  39 NW23G31   29.86S
HURON          MOSUNNY   72  44  36 W23G36    29.82F
MADISON        FAIR      68  48  49 W14G24    29.86F
MITCHELL       MOSUNNY   75  44  33 W22G30    29.84F
SIOUX FALLS    MOSUNNY   71  48  43 W9G22     29.87F
WINNER         FAIR      73  44  35 NW20G25   29.88S
YANKTON        SUNNY     73  46  38 SW13      29.87F
$$

MNZ071-072-080-081-089-090-097-098-312300-
SOUTHWEST MINNESOTA

CITY           SKY/WX    TMP DP  RH WIND       PRES   REMARKS
FAIRMONT       MOSUNNY   73  52  46 NW12      29.87F
JACKSON        MOSUNNY   72  45  37 W10G17    29.89S
LUVERNE        SUNNY     72  41  33 W17       29.89F
MARSHALL       MOSUNNY   73  45  36 W18G25    29.84F
MONTEVIDEO     MOSUNNY   75  46  35 W13       29.84F
PIPESTONE      SUNNY     72  46  40 W12G18    29.87F
REDWOOD FALLS  SUNNY     72  45  37 SW14G22   29.84S
TRACY          SUNNY     72  50  46 SW9       29.87S
WINDOM         SUNNY     73  46  38 CALM      29.88S
WORTHINGTON    SUNNY     71  47  42 W14       29.89F
$$

IAZ001>003-012>014-020>022-031-032-NEZ013-014-SDZ071-312300-
NORTHWEST IOWA

CITY           SKY/WX    TMP DP  RH WIND       PRES   REMARKS
CHEROKEE       SUNNY     73  52  46 W7        29.89F
DENISON        MOSUNNY   72  55  56 VRB7      29.89F
ESTHERVILLE    MOSUNNY   72  54  53 W13       29.88F
LE MARS        SUNNY     73  46  38 NW13G20   29.91S
ORANGE CITY    SUNNY     72  48  43 W10       29.90S
SHELDON        SUNNY     72  46  40 W10G17    29.88F
SIOUX CITY     CLOUDY    76  46  34 N8        29.90F
SPENCER        SUNNY     73  51  46 W9        29.89F
STORM LAKE     MOSUNNY   72  52  49 NW13      29.91F
$$

ABBREVIATIONS USED IN REMARKS
   TC - TEMPERATURE IN CELSIUS
  WCI - WIND CHILL INDEX
   HX - HEAT INDEX
  VSB - VISIBILITY





USA.gov is the U.S. government's official web portal to all federal, state and local government web resources and services.